Location: Vinland
(47.7731°N, 122.6974°W)
Time: 05:35:48
(UTC+00:00)

Vanguard 2 - Pass Details

Date: 20 April 2024
Orbit: 552 x 2914 km, 32.9° (Epoch: 25 May)

Event Time Altitude Azimuth Distance (km) Brightness Sun altitude
Exits shadow 11:21:06 20° 231° (SW) 4,685 10.8 -16.9°
Maximum altitude 11:32:53 47° 173° (S) 3,561 10.6 -15.3°
Drops below altitude 10° 11:48:19 10° 107° (ESE) 5,337 12.3 -13.2°
Sets 11:52:16 0° 102° (ESE) 6,125 12.8 -12.7°
